Погода в Буе

Россия / Костромская область     58°28′54″N   41°31′59″E
темп.,
°C
ветер,
м/с
пор.,
м/с
влажн.,
%
обл.,
%
осадки,
мм/ч
давл.,
гПа
погр.,
м
14 апреля, ср
ср1400:00+8ю388335 0.0 1023128
03:00+7ю378282 0.0 1023111
06:00+7ю312865 0.0 1022203
09:00+13ю4137181 0.0 1021420
12:00+17ю5105713 0.0 1020736
15:00+18ю595274 0.0 10191383
18:00+15ю3864100 0.0 1018168
21:00+11ю3776100 0.0 1019112
15 апреля, чт
чт1500:00+9зюз237591 0.0 101931
03:00+7с359671 0.0 1019102
06:00+7с4895100 0.0 1020318
09:00+7ссв5988100 0.0 1022480
12:00+6ссв61187100 0.1 1024637
15:00+5св51189100 0.1 1025652
18:00+5всв41285100 0.4 1026667
21:00+5св3108893 0.4 1027522
16 апреля, пт
пт1600:00+4св5137277 0.0 1028537
03:00+2св5137588 0.0 1029454
06:00+1св4127821 0.0 1030424
09:00+5всв59585 0.0 1030680
12:00+9всв57445 0.0 10301072
15:00+10всв57405 0.0 10301208
18:00+9св48505 0.0 1030414
21:00+4св37705 0.0 1031132
17 апреля, сб
сб1700:00+3св37755 0.0 1032130
03:00+1св36785 0.0 1033110
06:00+1св26795 0.0 1033132
09:00+7всв36535 0.0 1034528
12:00+10св45425 0.0 10331316
15:00+12св45395 0.0 10321573
18:00+10св25503 0.0 1031167
21:00+6св35680 0.0 103270
18 апреля, вс
вс1800:00+4св22740 0.0 103235
03:00+3ссв22792 0.0 103333
06:00+3ссв23800 0.0 103363
09:00+8св35620 0.0 1033510
12:00+11св34475 0.0 10321546
15:00+13св45396 0.0 10321852
18:00+11св365274 0.0 1032292
21:00+7в39725 0.0 1033249